Weather History for Cheyenne, WY

Change the Weather History Date:

Thursday, April 25, 2013

  Actual Average Record
Temperature  
Mean Temperature 42 °F 46 °F  
Max Temperature 60 °F 58 °F 77 °F (1962)
Min Temperature 23 °F 33 °F 14 °F (1924)
Degree Days  
Heating Degree Days 23 19  
Month to date heating degree days 794 573  
Since 1 July heating degree days 6657 6493  
Cooling Degree Days 0 0  
Month to date cooling degree days 0 0  
Year to date cooling degree days 0 0  
Moisture  
Dew Point 14 °F    
Average Humidity 42    
Maximum Humidity 74    
Minimum Humidity 10    
Precipitation  
Precipitation 0.00 in 0.07 in 1.07 in (1999)
Month to date precipitation 2.10 1.44  
Year to date precipitation 3.61 3.29  
Snow  
Snow 0.00 in 0.30 in 9.00 in (1935)
Month to date snowfall 30.3 9.1  
Since 1 July snowfall 75.5 56.9  
Snow Depth 0.00 in    
Sea Level Pressure  
Sea Level Pressure 29.99 in    
Wind  
Wind Speed 11 mph (West)    
Max Wind Speed 25 mph    
Max Gust Speed 33 mph    
Visibility 10 miles    
Events      
T = Trace of Precipitation, MM = Missing Value Source: NWS Daily Summary

Daily Weather History Graph

Daily Weather History Graph

Search for Another Location

Airport:

Trip Planner

Search our weather history database for the weather conditions in past years. The results will help you decide how hot, cold, wet, or windy it might be!

Date:

Astronomy

Apr. 25, 2013 Rise Set
Actual Time 6:04 AM MDT 7:50 PM MDT
Civil Twilight 5:35 AM MDT 8:19 PM MDT
Nautical Twilight 4:59 AM MDT 8:55 PM MDT
Astronomical Twilight 4:21 AM MDT 9:34 PM MDT
Moon 8:06 PM MDT (4/25) 5:49 AM MDT (4/25)
Length of Visible Light 14h 44m
Length of Day
13h 45m
Full, 100% of the Moon is Illuminated
Apr 25
Full
Apr 25
Full
May 2
Last Quarter
May 9
New
May 17
First Quarter

Hourly Weather History & Observations

Time (MDT) Temp. Windchill Dew Point Humidity Pressure Visibility Wind Dir Wind Speed Gust Speed Precip Events Conditions
12:53 AM 34.0 °F 24.6 °F 16.0 °F 48% 30.15 in 10.0 mi SSW 13.8 mph - N/A   Clear
1:53 AM 34.0 °F 26.0 °F 16.0 °F 48% 30.12 in 10.0 mi SSW 10.4 mph - N/A   Clear
2:53 AM 28.0 °F 19.3 °F 19.0 °F 69% 30.13 in 10.0 mi SW 9.2 mph - N/A   Clear
3:53 AM 28.9 °F 23.9 °F 19.0 °F 67% 30.11 in 10.0 mi West 4.6 mph - N/A   Clear
4:53 AM 28.0 °F 18.6 °F 19.0 °F 69% 30.11 in 10.0 mi West 10.4 mph - N/A   Clear
5:53 AM 23.0 °F 13.1 °F 16.0 °F 74% 30.13 in 10.0 mi West 9.2 mph - N/A   Clear
6:53 AM 28.0 °F 18.6 °F 17.1 °F 63% 30.09 in 10.0 mi West 10.4 mph - N/A   Clear
7:53 AM 36.0 °F 28.5 °F 19.0 °F 50% 30.06 in 10.0 mi West 10.4 mph - N/A   Clear
8:53 AM 45.0 °F 39.7 °F 15.1 °F 30% 30.04 in 10.0 mi SW 10.4 mph - N/A   Clear
9:53 AM 51.1 °F - 8.1 °F 18% 30.02 in 10.0 mi WSW 15.0 mph - N/A   Clear
10:53 AM 53.1 °F - 7.0 °F 16% 30.01 in 10.0 mi West 11.5 mph 21.9 mph N/A   Clear
11:53 AM 55.9 °F - 3.9 °F 12% 29.95 in 10.0 mi West 18.4 mph 26.5 mph N/A   Clear
12:53 PM 57.9 °F - 1.0 °F 10% 29.92 in 10.0 mi WSW 19.6 mph 27.6 mph N/A   Clear
1:53 PM 57.0 °F - 5.0 °F 12% 29.90 in 10.0 mi West 19.6 mph 26.5 mph N/A   Clear
2:53 PM 55.9 °F - 7.0 °F 14% 29.93 in 10.0 mi WSW 12.7 mph - N/A   Clear
3:53 PM 57.0 °F - 6.1 °F 13% 29.88 in 10.0 mi WNW 15.0 mph 21.9 mph N/A   Clear
4:53 PM 57.9 °F - 5.0 °F 12% 29.87 in 10.0 mi NW 12.7 mph 21.9 mph N/A   Clear
5:53 PM 59.0 °F - 8.1 °F 13% 29.90 in 10.0 mi WNW 16.1 mph 21.9 mph N/A   Clear
6:53 PM 55.9 °F - 12.9 °F 18% 29.90 in 10.0 mi WNW 8.1 mph - N/A   Clear
7:53 PM 48.9 °F - 19.0 °F 31% 29.92 in 10.0 mi SW 9.2 mph - N/A   Clear
8:53 PM 46.0 °F 44.8 °F 19.9 °F 35% 29.91 in 10.0 mi WSW 3.5 mph - N/A   Clear
9:53 PM 41.0 °F 38.0 °F 23.0 °F 49% 29.93 in 10.0 mi Variable 4.6 mph - N/A   Clear
10:53 PM 37.0 °F 31.0 °F 23.0 °F 57% 29.94 in 10.0 mi West 8.1 mph - N/A   Clear
11:53 PM 33.1 °F 26.1 °F 23.0 °F 66% 29.95 in 10.0 mi West 8.1 mph - N/A   Clear